• In Netherlands
  • List of Countries
  • For 7 days
  • Water Temperature
  • Satellite Maps
  • Weather Map
  • Weather Widgets
  • user-avatar
    Login

    Hourly Weather Baraki Barak

    Today, 22 September, Friday

    Time Temperature Precipitation Wind Pressure Humidity
    00:00 +19°C° 0 mm 1 mps 597 mmHg 29%
    01:00 +18°C° 0 mm 1 mps 597 mmHg 30%
    02:00 +16°C° 0 mm 1 mps 597 mmHg 32%
    03:00 +16°C° 0 mm 1 mps 597 mmHg 33%
    04:00 +15°C° 0 mm 1 mps 597 mmHg 33%
    05:00 +15°C° 0 mm 1 mps 596 mmHg 37%
    06:00 +16°C° 0 mm 1 mps 597 mmHg 34%
    07:00 +18°C° 0 mm 1 mps 597 mmHg 31%
    08:00 +18°C° 0 mm 1 mps 598 mmHg 28%
    09:00 +20°C° 0 mm 1 mps 598 mmHg 25%
    10:00 +21°C° 0 mm 1 mps 599 mmHg 22%
    11:00 +22°C° 0 mm 1 mps 599 mmHg 18%
    12:00 +23°C° 0 mm 1 mps 599 mmHg 17%
    13:00 +24°C° 0 mm 1 mps 599 mmHg 15%
    14:00 +25°C° 0 mm 1 mps 599 mmHg 13%
    15:00 +25°C° 0 mm 1 mps 599 mmHg 13%
    16:00 +25°C° 0 mm 2 mps 599 mmHg 12%
    17:00 +25°C° 0 mm 2 mps 599 mmHg 12%
    18:00 +24°C° 0 mm 2 mps 599 mmHg 14%
    19:00 +23°C° 0 mm 2 mps 598 mmHg 16%
    20:00 +20°C° 0 mm 2 mps 598 mmHg 18%
    21:00 +21°C° 0 mm 1 mps 598 mmHg 20%
    22:00 +20°C° 0 mm 1 mps 598 mmHg 22%
    23:00 +19°C° 0 mm 1 mps 598 mmHg 24%

    Tomorrow, 23 September, Saturday

    Time Temperature Precipitation Wind Pressure Humidity
    00:00 +18°C° 0 mm 1 mps 598 mmHg 25%
    01:00 +18°C° 0 mm 1 mps 597 mmHg 26%
    02:00 +16°C° 0 mm 1 mps 597 mmHg 28%
    03:00 +15°C° 0 mm 1 mps 597 mmHg 28%
    04:00 +15°C° 0 mm 1 mps 597 mmHg 29%
    05:00 +14°C° 0 mm 1 mps 597 mmHg 30%
    06:00 +16°C° 0 mm 1 mps 598 mmHg 27%
    07:00 +18°C° 0 mm 1 mps 598 mmHg 24%
    08:00 +19°C° 0 mm 1 mps 599 mmHg 22%
    09:00 +20°C° 0 mm 1 mps 600 mmHg 19%
    10:00 +21°C° 0 mm 1 mps 600 mmHg 17%
    11:00 +22°C° 0 mm 1 mps 600 mmHg 14%
    12:00 +23°C° 0 mm 1 mps 600 mmHg 13%
    13:00 +24°C° 0 mm 1 mps 600 mmHg 12%
    14:00 +25°C° 0 mm 1 mps 600 mmHg 11%
    15:00 +25°C° 0 mm 2 mps 600 mmHg 10%
    16:00 +25°C° 0 mm 2 mps 600 mmHg 10%
    17:00 +25°C° 0 mm 2 mps 600 mmHg 9%
    18:00 +24°C° 0 mm 2 mps 600 mmHg 11%
    19:00 +23°C° 0 mm 2 mps 600 mmHg 13%
    20:00 +21°C° 0 mm 1 mps 600 mmHg 15%
    21:00 +21°C° 0 mm 1 mps 599 mmHg 17%
    22:00 +20°C° 0 mm 1 mps 599 mmHg 19%
    23:00 +19°C° 0 mm 1 mps 599 mmHg 21%

    Day after tomorrow, 24 September, Sunday

    Time Temperature Precipitation Wind Pressure Humidity
    00:00 +18°C° 0 mm 1 mps 599 mmHg 22%
    01:00 +16°C° 0 mm 1 mps 598 mmHg 24%
    02:00 +16°C° 0 mm 1 mps 598 mmHg 25%
    03:00 +15°C° 0 mm 1 mps 598 mmHg 25%
    04:00 +15°C° 0 mm 1 mps 597 mmHg 26%
    05:00 +14°C° 0 mm 1 mps 597 mmHg 26%
    06:00 +16°C° 0 mm 1 mps 598 mmHg 24%
    07:00 +18°C° 0 mm 1 mps 599 mmHg 22%
    08:00 +19°C° 0 mm 1 mps 600 mmHg 19%
    09:00 +20°C° 0 mm 1 mps 600 mmHg 18%
    10:00 +21°C° 0 mm 1 mps 601 mmHg 16%
    11:00 +23°C° 0 mm 1 mps 601 mmHg 14%
    12:00 +24°C° 0 mm 1 mps 601 mmHg 14%
    13:00 +24°C° 0 mm 1 mps 601 mmHg 13%
    14:00 +25°C° 0 mm 1 mps 601 mmHg 12%
    15:00 +25°C° 0 mm 2 mps 600 mmHg 12%
    16:00 +25°C° 0 mm 2 mps 600 mmHg 12%
    17:00 +26°C° 0 mm 2 mps 600 mmHg 11%
    18:00 +24°C° 0 mm 2 mps 600 mmHg 13%
    19:00 +23°C° 0 mm 2 mps 600 mmHg 15%
    20:00 +21°C° 0 mm 2 mps 600 mmHg 17%
    21:00 +21°C° 0 mm 1 mps 600 mmHg 18%
    22:00 +20°C° 0 mm 1 mps 599 mmHg 20%
    23:00 +19°C° 0 mm 1 mps 599 mmHg 21%

    25 September, Monday

    Time Temperature Precipitation Wind Pressure Humidity
    00:00 +18°C° 0 mm 1 mps 599 mmHg 22%
    01:00 +18°C° 0 mm 1 mps 598 mmHg 23%
    02:00 +16°C° 0 mm 1 mps 598 mmHg 24%
    03:00 +16°C° 0 mm 1 mps 598 mmHg 25%
    04:00 +15°C° 0 mm 2 mps 597 mmHg 25%
    05:00 +15°C° 0 mm 2 mps 597 mmHg 26%
    06:00 +15°C° 0 mm 2 mps 598 mmHg 25%
    07:00 +16°C° 0 mm 2 mps 599 mmHg 24%
    08:00 +17°C° 0 mm 2 mps 599 mmHg 22%
    09:00 +18°C° 0 mm 2 mps 600 mmHg 20%
    10:00 +20°C° 0 mm 2 mps 600 mmHg 18%
    11:00 +21°C° 0 mm 2 mps 600 mmHg 15%
    12:00 +23°C° 0 mm 2 mps 600 mmHg 14%
    13:00 +24°C° 0 mm 2 mps 600 mmHg 12%
    14:00 +25°C° 0 mm 2 mps 600 mmHg 11%
    15:00 +25°C° 0 mm 2 mps 600 mmHg 11%
    16:00 +25°C° 0 mm 2 mps 599 mmHg 11%
    17:00 +25°C° 0 mm 2 mps 599 mmHg 10%
    18:00 +23°C° 0 mm 2 mps 599 mmHg 12%
    19:00 +21°C° 0 mm 2 mps 599 mmHg 14%
    20:00 +20°C° 0 mm 2 mps 599 mmHg 16%
    21:00 +20°C° 0 mm 1 mps 599 mmHg 17%
    22:00 +19°C° 0 mm 1 mps 599 mmHg 18%
    23:00 +18°C° 0 mm 1 mps 598 mmHg 19%

    26 September, Tuesday

    Time Temperature Precipitation Wind Pressure Humidity
    00:00 +17°C° 0 mm 2 mps 598 mmHg 19%
    01:00 +16°C° 0 mm 2 mps 598 mmHg 19%
    02:00 +16°C° 0 mm 2 mps 597 mmHg 20%
    03:00 +15°C° 0 mm 2 mps 597 mmHg 21%
    04:00 +15°C° 0 mm 2 mps 597 mmHg 21%
    05:00 +14°C° 0 mm 1 mps 597 mmHg 22%
    06:00 +15°C° 0 mm 1 mps 597 mmHg 21%
    07:00 +16°C° 0 mm 1 mps 598 mmHg 19%
    08:00 +18°C° 0 mm 1 mps 599 mmHg 18%
    09:00 +19°C° 0 mm 1 mps 599 mmHg 16%
    10:00 +21°C° 0 mm 1 mps 600 mmHg 15%
    11:00 +22°C° 0 mm 1 mps 600 mmHg 13%
    12:00 +23°C° 0 mm 1 mps 600 mmHg 12%
    13:00 +24°C° 0 mm 1 mps 600 mmHg 11%
    14:00 +25°C° 0 mm 2 mps 600 mmHg 10%
    15:00 +26°C° 0 mm 2 mps 600 mmHg 10%
    16:00 +26°C° 0 mm 2 mps 600 mmHg 10%
    17:00 +26°C° 0 mm 2 mps 600 mmHg 10%
    18:00 +24°C° 0 mm 2 mps 600 mmHg 12%
    19:00 +23°C° 0 mm 2 mps 600 mmHg 14%
    20:00 +20°C° 0 mm 2 mps 600 mmHg 17%
    21:00 +20°C° 0 mm 2 mps 599 mmHg 19%
    22:00 +20°C° 0 mm 1 mps 599 mmHg 21%
    23:00 +19°C° 0 mm 1 mps 599 mmHg 22%

    27 September, Wednesday

    Time Temperature Precipitation Wind Pressure Humidity
    00:00 +18°C° 0 mm 1 mps 599 mmHg 24%
    01:00 +16°C° 0 mm 1 mps 598 mmHg 25%
    02:00 +16°C° 0 mm 1 mps 598 mmHg 27%
    03:00 +15°C° 0 mm 1 mps 598 mmHg 27%
    04:00 +15°C° 0 mm 1 mps 598 mmHg 27%
    05:00 +14°C° 0 mm 1 mps 598 mmHg 27%
    06:00 +15°C° 0 mm 1 mps 599 mmHg 24%
    07:00 +16°C° 0 mm 1 mps 600 mmHg 21%
    08:00 +19°C° 0 mm 1 mps 600 mmHg 18%
    09:00 +20°C° 0 mm 1 mps 601 mmHg 16%
    10:00 +20°C° 0 mm 2 mps 601 mmHg 14%
    11:00 +21°C° 0 mm 2 mps 602 mmHg 12%
    12:00 +23°C° 0 mm 2 mps 601 mmHg 12%
    13:00 +24°C° 0 mm 2 mps 601 mmHg 11%
    14:00 +25°C° 0 mm 2 mps 601 mmHg 10%
    15:00 +25°C° 0 mm 2 mps 601 mmHg 10%
    16:00 +25°C° 0 mm 2 mps 601 mmHg 10%
    17:00 +25°C° 0 mm 2 mps 601 mmHg 10%
    18:00 +23°C° 0 mm 2 mps 601 mmHg 12%
    19:00 +21°C° 0 mm 2 mps 601 mmHg 14%
    20:00 +21°C° 0 mm 1 mps 600 mmHg 16%
    21:00 +20°C° 0 mm 1 mps 600 mmHg 17%
    22:00 +19°C° 0 mm 1 mps 600 mmHg 18%
    23:00 +18°C° 0 mm 1 mps 600 mmHg 18%
    Show more